Terminal Aerodrome Forecast
Issued by NWS Grand Forks, ND

Home | Current Version | Previous Version | Graphics & Text | Print | Product List | Glossary On
Versions: 1 2 3 4 5 6 7 8 9 10 11 12 13 14 15 16 17 18 19 20
000
FTUS43 KFGF 192300
TAFGFK
TAF
KGFK 192320Z 2000/2024 30016KT P6SM SCT100 SCT250
     FM200300 33012KT P6SM VCSH BKN060
     FM200600 30007KT P6SM SCT250=

USA.gov is the U.S. government's official web portal to all federal, state and local government web resources and services.